DW0088 Weather Reports


time (UTC)temp
C
wind
direction
speed
KPH
gust
KPH
rain 1hr
cm
rain 24hr
cm
rain mn
cm
humidity
%
barometer
mb
20260503020955 14 96 4.8 8.0 0.00 0.10 0.00 97 1010.8
20260503015955 13 90 4.8 9.7 0.00 0.10 0.00 97 1010.9
20260503014954 13 79 3.2 4.8 0.00 0.10 0.00 97 1010.9
20260503013954 13 85 4.8 9.7 0.00 0.10 0.00 97 1011.2
20260503012956 13 78 4.8 9.7 0.00 0.10 0.00 97 1011.3
20260503011954 13 74 4.8 8.0 0.00 0.10 0.00 97 1011.3
20260503010955 13 74 4.8 11.3 0.00 0.10 0.00 97 1011.3
20260503005955 13 75 3.2 6.4 0.00 0.10 0.00 97 1011.5
20260503004955 13 48 1.6 3.2 0.00 0.10 0.00 97 1011.5
20260503003955 13 23 0.0 3.2 0.00 0.10 0.00 97 1011.8
20260503002955 13 318 3.2 6.4 0.00 0.10 0.00 97 1011.8
20260503001954 13 285 4.8 6.4 0.00 0.10 0.00 97 1011.8
20260503000955 13 270 6.4 9.7 0.00 0.10 0.00 97 1012.0
20260502235955 13 275 3.2 6.4 0.00 0.10 0.00 96 1012.2
20260502234955 13 0 0.0 0.0 0.00 0.10 0.00 96 1012.2
20260502233956 13 269 0.0 3.2 0.00 0.10 0.00 96 1012.4
20260502232955 14 306 3.2 4.8 0.00 0.10 0.00 96 1012.3
20260502231955 14 9 0.0 3.2 0.00 0.10 0.00 95 1012.3
20260502230955 14 9 1.6 4.8 0.00 0.10 0.00 95 1012.3
20260502225955 14 12 1.6 4.8 0.00 0.10 0.00 94 1012.4
20260502224955 14 346 3.2 8.0 0.03 0.10 0.00 94 1012.4
20260502223955 14 76 4.8 11.3 0.08 0.10 0.00 93 1012.3
20260502222956 14 94 8.0 12.9 0.08 0.10 0.00 93 1012.2
20260502221956 15 79 8.0 14.5 0.08 0.10 0.00 93 1012.2
20260502220001 15 42 11.3 16.1 0.08 0.10 0.00 92 1013.4
20260502214955 15 324 4.8 12.9 0.05 0.08 0.08 90 1013.4
20260502212956 15 287 11.3 17.7 0.00 0.03 0.03 90 1013.4
20260502211955 16 268 12.9 20.9 0.00 0.03 0.03 88 1013.4
20260502205955 17 240 12.9 37.0 0.00 0.03 0.03 82 1012.8
20260502204956 17 225 4.8 16.1 0.00 0.03 0.03 81 1012.8
20260502203956 17 166 3.2 6.4 0.00 0.03 0.03 79 1012.2
20260502202956 18 143 3.2 8.0 0.00 0.03 0.03 77 1012.4
20260502201955 18 149 6.4 12.9 0.00 0.03 0.03 77 1012.4
20260502200955 18 146 4.8 9.7 0.00 0.03 0.03 74 1012.4
20260502195956 19 121 3.2 9.7 0.03 0.03 0.03 73 1012.4
20260502193955 20 117 6.4 14.5 0.03 0.03 0.03 71 1012.7
20260502192956 20 117 8.0 17.7 0.03 0.03 0.03 71 1012.8
20260502191955 20 113 8.0 20.9 0.03 0.03 0.03 73 1012.8
20260502190956 20 63 6.4 14.5 0.03 0.03 0.03 74 1012.5
20260502185955 21 352 4.8 8.0 0.00 0.00 0.00 70 1012.4
20260502184956 21 6 4.8 9.7 0.00 0.00 0.00 66 1012.4
20260502182956 22 320 4.8 12.9 0.00 0.00 0.00 63 1012.6
20260502181956 23 45 3.2 4.8 0.00 0.00 0.00 61 1012.6
20260502180956 23 348 1.6 6.4 0.00 0.00 0.00 59 1012.5
20260502163957 24 192 4.8 8.0 0.00 0.00 0.00 57 1013.2
20260502161956 25 204 3.2 8.0 0.00 0.00 0.00 56 1013.4
20260502160956 24 206 1.6 6.4 0.00 0.00 0.00 57 1013.5
20260502151957 25 175 3.2 12.9 0.00 0.00 0.00 56 1014.1
20260502150956 25 178 4.8 12.9 0.00 0.00 0.00 56 1014.4
20260502122957 23 223 9.7 17.7 0.00 0.00 0.00 61 1016.5
20260502121957 23 196 8.0 19.3 0.00 0.00 0.00 62 1016.5
20260502120957 23 209 9.7 20.9 0.00 0.00 0.00 62 1016.6
20260502113957 22 189 9.7 16.1 0.00 0.00 0.00 63 1016.9
20260502111958 22 210 8.0 16.1 0.00 0.00 0.00 63 1017.0
20260502110956 22 189 8.0 22.5 0.00 0.00 0.00 63 1017.1
20260502105957 22 209 11.3 22.5 0.00 0.00 0.00 63 1017.1
20260502103959 22 193 9.7 17.7 0.00 0.00 0.00 63 1017.4
20260502102958 22 173 11.3 17.7 0.00 0.00 0.00 63 1017.5
20260502101957 22 200 9.7 16.1 0.00 0.00 0.00 63 1017.5
20260502100957 22 191 8.0 19.3 0.00 0.00 0.00 64 1017.6
20260502090957 20 169 9.7 16.1 0.00 0.00 0.00 63 1017.9
20260502070958 16 182 6.4 14.5 0.00 0.00 0.00 66 1018.2
20260502065958 16 184 8.0 12.9 0.00 0.00 0.00 65 1018.4
20260502064958 15 177 8.0 14.5 0.00 0.00 0.00 67 1018.4
20260502063958 15 175 6.4 9.7 0.00 0.00 0.00 68 1018.3
20260502062958 14 177 4.8 11.3 0.00 0.00 0.00 69 1018.2
20260502061958 14 165 3.2 8.0 0.00 0.00 0.00 70 1018.2
20260502060958 14 171 3.2 6.4 0.00 0.00 0.00 69 1018.1
20260502055958 13 174 4.8 8.0 0.00 0.00 0.00 68 1018.1
20260502051958 12 162 4.8 8.0 0.00 0.00 0.00 67 1018.1
20260502050959 12 160 4.8 9.7 0.00 0.00 0.00 68 1017.9
20260502045958 12 163 1.6 6.4 0.00 0.00 0.00 69 1017.9
20260502044958 11 171 1.6 4.8 0.00 0.00 0.00 74 1017.9
20260502043957 10 151 1.6 4.8 0.00 0.00 0.00 76 1017.9
20260502042958 10 150 1.6 6.4 0.00 0.00 0.00 75 1017.9
20260502041958 9 145 1.6 4.8 0.00 0.00 0.00 76 1017.9
20260502040959 9 143 1.6 4.8 0.00 0.00 0.00 77 1018.0
20260502035958 8 131 1.6 6.4 0.00 0.00 0.00 79 1018.1
20260502034958 8 136 1.6 8.0 0.00 0.00 0.00 79 1018.1
20260502033958 7 131 1.6 4.8 0.00 0.00 0.00 81 1018.2
20260502031958 8 121 0.0 3.2 0.00 0.00 0.00 78 1018.1
20260502030959 8 146 1.6 4.8 0.00 0.00 0.00 77 1018.2
20260502024958 8 145 0.0 1.6 0.00 0.00 0.00 78 1018.3
20260502023959 7 145 0.0 3.2 0.00 0.00 0.00 78 1018.4
20260502021958 8 120 0.0 1.6 0.00 0.00 0.00 77 1018.5